Time,TemperatureF,DewpointF,PressureIn,WindDirection,WindDirectionDegrees,WindSpeedMPH,WindSpeedGustMPH,Humidity,HourlyPrecipIn,Conditions,Clouds,dailyrainin,SoftwareType,DateUTC
2013-01-08 00:00:00,27.0,25.5,30.67,South,169,2.0,3.0,94,0.00,,,0.00,meteohub,2013-01-08 08:00:00,
2013-01-08 00:05:00,27.0,25.5,30.67,South,178,2.0,3.0,94,0.00,,,0.00,meteohub,2013-01-08 08:05:00,
2013-01-08 00:10:00,26.8,25.3,30.67,SSE,159,2.0,3.0,94,0.00,,,0.00,meteohub,2013-01-08 08:10:00,
2013-01-08 00:15:00,26.6,25.2,30.67,SSE,157,1.0,3.0,94,0.00,,,0.00,meteohub,2013-01-08 08:15:00,
2013-01-08 00:20:00,26.4,25.0,30.68,SSE,167,1.0,3.0,94,0.00,,,0.00,meteohub,2013-01-08 08:20:00,
2013-01-08 00:25:00,26.4,25.0,30.68,South,172,1.0,3.0,94,0.00,,,0.00,meteohub,2013-01-08 08:25:00,
2013-01-08 00:30:00,26.4,25.0,30.68,SSE,160,2.0,2.0,94,0.00,,,0.00,meteohub,2013-01-08 08:30:00,
2013-01-08 00:35:00,26.4,25.0,30.68,SSE,157,2.0,3.0,94,0.00,,,0.00,meteohub,2013-01-08 08:35:00,
2013-01-08 00:40:00,26.2,24.8,30.67,SSE,157,2.0,3.0,94,0.00,,,0.00,meteohub,2013-01-08 08:40:00,
2013-01-08 00:45:00,26.2,24.8,30.67,SSE,159,2.0,3.0,94,0.00,,,0.00,meteohub,2013-01-08 08:45:00,
2013-01-08 00:50:00,26.1,24.6,30.67,South,173,2.0,3.0,94,0.00,,,0.00,meteohub,2013-01-08 08:50:00,
2013-01-08 00:55:00,25.9,24.4,30.67,SSE,159,1.0,3.0,94,0.00,,,0.00,meteohub,2013-01-08 08:55:00,
2013-01-08 01:00:00,25.9,24.4,30.67,SSE,167,1.0,3.0,94,0.00,,,0.00,meteohub,2013-01-08 09:00:00,
2013-01-08 01:05:00,25.9,24.6,30.67,SSE,167,2.0,3.0,95,0.00,,,0.00,meteohub,2013-01-08 09:05:00,
2013-01-08 01:10:00,25.9,24.6,30.67,SSE,153,2.0,3.0,95,0.00,,,0.00,meteohub,2013-01-08 09:10:00,
2013-01-08 01:15:00,25.9,24.6,30.67,SSE,154,2.0,3.0,95,0.00,,,0.00,meteohub,2013-01-08 09:15:00,
2013-01-08 01:20:00,25.7,24.3,30.67,SSE,155,2.0,3.0,94,0.00,,,0.00,meteohub,2013-01-08 09:20:00,
2013-01-08 01:25:00,25.7,24.4,30.67,SSE,165,2.0,3.0,95,0.00,,,0.00,meteohub,2013-01-08 09:25:00,
2013-01-08 01:30:00,25.9,24.6,30.67,South,172,2.0,3.0,95,0.00,,,0.00,meteohub,2013-01-08 09:30:00,
2013-01-08 01:35:00,25.5,24.1,30.67,SSW,207,2.0,3.0,94,0.00,,,0.00,meteohub,2013-01-08 09:35:00,
2013-01-08 01:40:00,25.5,24.3,30.67,SSE,166,3.0,3.0,95,0.00,,,0.00,meteohub,2013-01-08 09:40:00,
2013-01-08 01:45:00,25.9,24.6,30.67,South,184,2.0,4.0,95,0.00,,,0.00,meteohub,2013-01-08 09:45:00,
2013-01-08 01:50:00,26.1,24.8,30.68,SSE,165,2.0,4.0,95,0.00,,,0.00,meteohub,2013-01-08 09:50:00,
2013-01-08 01:55:00,26.1,24.8,30.68,SSE,150,2.0,3.0,95,0.00,,,0.00,meteohub,2013-01-08 09:55:00,
2013-01-08 02:00:00,25.9,24.4,30.67,South,173,2.0,3.0,94,0.00,,,0.00,meteohub,2013-01-08 10:00:00,
2013-01-08 02:05:00,25.9,24.4,30.67,South,173,3.0,4.0,94,0.00,,,0.00,meteohub,2013-01-08 10:05:00,
2013-01-08 02:10:00,25.9,24.6,30.67,SSE,157,2.0,4.0,95,0.00,,,0.00,meteohub,2013-01-08 10:10:00,
2013-01-08 02:15:00,25.9,24.4,30.67,SSE,153,2.0,4.0,94,0.00,,,0.00,meteohub,2013-01-08 10:15:00,
2013-01-08 02:20:00,25.5,24.1,30.67,SSE,164,3.0,3.0,94,0.00,,,0.00,meteohub,2013-01-08 10:20:00,
2013-01-08 02:25:00,25.5,24.1,30.67,SSE,167,3.0,3.0,94,0.00,,,0.00,meteohub,2013-01-08 10:25:00,
2013-01-08 02:31:00,25.5,24.1,30.67,SSE,161,2.0,3.0,94,0.00,,,0.00,meteohub,2013-01-08 10:31:00,
2013-01-08 02:36:00,25.3,23.9,30.67,SSE,165,1.0,3.0,94,0.00,,,0.00,meteohub,2013-01-08 10:36:00,
2013-01-08 02:41:00,25.3,23.9,30.67,SSE,165,2.0,3.0,94,0.00,,,0.00,meteohub,2013-01-08 10:41:00,
2013-01-08 02:46:00,25.2,23.7,30.67,SSE,154,2.0,2.0,94,0.00,,,0.00,meteohub,2013-01-08 10:46:00,
2013-01-08 02:51:00,25.0,23.5,30.67,SSE,158,1.0,2.0,94,0.00,,,0.00,meteohub,2013-01-08 10:51:00,
2013-01-08 02:56:00,24.6,23.2,30.67,SSE,157,0.0,2.0,94,0.00,,,0.00,meteohub,2013-01-08 10:56:00,
2013-01-08 03:01:00,24.4,23.0,30.67,SSE,155,1.0,2.0,94,0.00,,,0.00,meteohub,2013-01-08 11:01:00,
2013-01-08 03:06:00,24.4,23.0,30.67,SSE,155,2.0,2.0,94,0.00,,,0.00,meteohub,2013-01-08 11:06:00,
2013-01-08 03:11:00,24.3,22.8,30.67,South,190,2.0,2.0,94,0.00,,,0.00,meteohub,2013-01-08 11:11:00,
2013-01-08 03:16:00,24.3,22.8,30.68,SSE,160,2.0,3.0,94,0.00,,,0.00,meteohub,2013-01-08 11:16:00,
2013-01-08 03:21:00,24.4,23.2,30.68,SSE,163,1.0,3.0,95,0.00,,,0.00,meteohub,2013-01-08 11:21:00,
2013-01-08 03:26:00,24.6,23.4,30.68,SSE,150,1.0,3.0,95,0.00,,,0.00,meteohub,2013-01-08 11:26:00,
2013-01-08 03:31:00,24.8,23.5,30.69,South,171,2.0,3.0,95,0.00,,,0.00,meteohub,2013-01-08 11:31:00,
2013-01-08 03:36:00,25.0,23.7,30.69,SSE,153,2.0,2.0,95,0.00,,,0.00,meteohub,2013-01-08 11:36:00,
2013-01-08 03:41:00,25.2,23.9,30.69,SSE,156,0.0,2.0,95,0.00,,,0.00,meteohub,2013-01-08 11:41:00,
2013-01-08 03:46:00,25.0,23.5,30.69,SSE,159,2.0,2.0,94,0.00,,,0.00,meteohub,2013-01-08 11:46:00,
2013-01-08 03:51:00,24.4,23.0,30.69,SSE,161,2.0,3.0,94,0.00,,,0.00,meteohub,2013-01-08 11:51:00,
2013-01-08 03:56:00,24.3,22.8,30.69,SSE,159,2.0,3.0,94,0.00,,,0.00,meteohub,2013-01-08 11:56:00,
2013-01-08 04:01:00,24.3,22.8,30.69,SSE,167,2.0,3.0,94,0.00,,,0.00,meteohub,2013-01-08 12:01:00,
2013-01-08 04:06:00,24.3,22.8,30.69,South,173,2.0,3.0,94,0.00,,,0.00,meteohub,2013-01-08 12:06:00,
2013-01-08 04:11:00,24.3,23.0,30.70,South,183,1.0,3.0,95,0.00,,,0.00,meteohub,2013-01-08 12:11:00,
2013-01-08 04:16:00,24.3,22.8,30.70,SSE,161,1.0,3.0,94,0.00,,,0.00,meteohub,2013-01-08 12:16:00,
2013-01-08 04:21:00,24.3,22.8,30.69,SSE,164,2.0,3.0,94,0.00,,,0.00,meteohub,2013-01-08 12:21:00,
2013-01-08 04:26:00,23.9,22.1,30.69,SSE,164,2.0,3.0,93,0.00,,,0.00,meteohub,2013-01-08 12:26:00,
2013-01-08 04:31:00,23.5,21.7,30.69,SSE,158,2.0,3.0,93,0.00,,,0.00,meteohub,2013-01-08 12:31:00,
2013-01-08 04:36:00,23.7,22.3,30.69,South,183,3.0,3.0,94,0.00,,,0.00,meteohub,2013-01-08 12:36:00,
2013-01-08 04:41:00,24.1,22.8,30.69,SSE,161,3.0,4.0,95,0.00,,,0.00,meteohub,2013-01-08 12:41:00,
2013-01-08 04:46:00,24.3,23.0,30.69,South,173,3.0,4.0,95,0.00,,,0.00,meteohub,2013-01-08 12:46:00,
2013-01-08 04:51:00,24.4,23.0,30.69,SSE,166,3.0,4.0,94,0.00,,,0.00,meteohub,2013-01-08 12:51:00,
2013-01-08 04:56:00,24.4,23.0,30.69,SSE,164,2.0,3.0,94,0.00,,,0.00,meteohub,2013-01-08 12:56:00,
2013-01-08 05:01:00,24.4,23.0,30.69,SSE,153,2.0,3.0,94,0.00,,,0.00,meteohub,2013-01-08 13:01:00,
2013-01-08 05:06:00,24.4,23.0,30.69,SSE,149,2.0,3.0,94,0.00,,,0.00,meteohub,2013-01-08 13:06:00,
2013-01-08 05:11:00,24.4,23.0,30.69,SSE,157,2.0,3.0,94,0.00,,,0.00,meteohub,2013-01-08 13:11:00,
2013-01-08 05:16:00,24.4,23.0,30.69,SSE,155,2.0,3.0,94,0.00,,,0.00,meteohub,2013-01-08 13:16:00,
2013-01-08 05:21:00,24.3,22.8,30.69,SSE,164,2.0,3.0,94,0.00,,,0.00,meteohub,2013-01-08 13:21:00,
2013-01-08 05:26:00,24.3,22.8,30.69,South,169,2.0,4.0,94,0.00,,,0.00,meteohub,2013-01-08 13:26:00,
2013-01-08 05:31:00,24.4,23.0,30.69,SSE,168,2.0,4.0,94,0.00,,,0.00,meteohub,2013-01-08 13:31:00,
2013-01-08 05:36:00,24.6,23.2,30.69,SSE,156,3.0,4.0,94,0.00,,,0.00,meteohub,2013-01-08 13:36:00,
2013-01-08 05:42:00,24.6,23.2,30.69,SSE,166,2.0,3.0,94,0.00,,,0.00,meteohub,2013-01-08 13:42:00,
2013-01-08 05:47:00,24.4,23.0,30.68,SSE,168,3.0,3.0,94,0.00,,,0.00,meteohub,2013-01-08 13:47:00,
2013-01-08 05:52:00,24.3,22.8,30.69,South,173,2.0,3.0,94,0.00,,,0.00,meteohub,2013-01-08 13:52:00,
2013-01-08 05:57:00,24.4,23.2,30.68,South,173,2.0,3.0,95,0.00,,,0.00,meteohub,2013-01-08 13:57:00,
2013-01-08 06:02:00,24.4,23.0,30.68,SSE,153,2.0,3.0,94,0.00,,,0.00,meteohub,2013-01-08 14:02:00,
2013-01-08 06:07:00,24.3,22.5,30.68,SSE,165,3.0,3.0,93,0.00,,,0.00,meteohub,2013-01-08 14:07:00,
2013-01-08 06:12:00,24.1,22.6,30.68,SSE,168,2.0,3.0,94,0.00,,,0.00,meteohub,2013-01-08 14:12:00,
2013-01-08 06:17:00,24.1,22.6,30.68,SSE,168,3.0,3.0,94,0.00,,,0.00,meteohub,2013-01-08 14:17:00,
2013-01-08 06:22:00,23.7,21.9,30.68,SSE,157,2.0,3.0,93,0.00,,,0.00,meteohub,2013-01-08 14:22:00,
2013-01-08 06:27:00,23.5,21.7,30.68,SSE,153,2.0,3.0,93,0.00,,,0.00,meteohub,2013-01-08 14:27:00,
2013-01-08 06:32:00,23.5,22.1,30.69,SSE,163,1.0,3.0,94,0.00,,,0.00,meteohub,2013-01-08 14:32:00,
2013-01-08 06:37:00,23.5,22.1,30.69,SSE,161,2.0,3.0,94,0.00,,,0.00,meteohub,2013-01-08 14:37:00,
2013-01-08 06:42:00,23.4,21.9,30.69,SSE,167,2.0,3.0,94,0.00,,,0.00,meteohub,2013-01-08 14:42:00,
2013-01-08 06:47:00,23.4,21.9,30.69,SSE,160,2.0,3.0,94,0.00,,,0.00,meteohub,2013-01-08 14:47:00,
2013-01-08 06:52:00,23.5,22.3,30.69,South,173,2.0,3.0,95,0.00,,,0.00,meteohub,2013-01-08 14:52:00,
2013-01-08 06:57:00,23.9,22.6,30.69,SSE,160,2.0,3.0,95,0.00,,,0.00,meteohub,2013-01-08 14:57:00,
2013-01-08 07:02:00,24.1,22.8,30.70,SSE,154,1.0,3.0,95,0.00,,,0.00,meteohub,2013-01-08 15:02:00,
2013-01-08 07:07:00,23.5,22.1,30.70,SE,140,1.0,3.0,94,0.00,,,0.00,meteohub,2013-01-08 15:07:00,
2013-01-08 07:12:00,23.5,22.1,30.70,SE,141,0.0,3.0,94,0.00,,,0.00,meteohub,2013-01-08 15:12:00,
2013-01-08 07:17:00,23.5,22.1,30.70,SSE,168,1.0,2.0,94,0.00,,,0.00,meteohub,2013-01-08 15:17:00,
2013-01-08 07:22:00,23.4,21.9,30.70,SSE,167,0.0,1.0,94,0.00,,,0.00,meteohub,2013-01-08 15:22:00,
2013-01-08 07:27:00,23.9,23.0,30.70,South,180,2.0,2.0,96,0.00,,,0.00,meteohub,2013-01-08 15:27:00,
2013-01-08 07:32:00,23.7,22.3,30.71,SSE,165,3.0,3.0,94,0.00,,,0.00,meteohub,2013-01-08 15:32:00,
2013-01-08 07:37:00,23.7,22.3,30.71,SSE,159,2.0,3.0,94,0.00,,,0.00,meteohub,2013-01-08 15:37:00,
2013-01-08 07:42:00,23.7,22.3,30.71,SSE,167,2.0,3.0,94,0.00,,,0.00,meteohub,2013-01-08 15:42:00,
2013-01-08 07:47:00,23.7,22.3,30.71,South,171,3.0,3.0,94,0.00,,,0.00,meteohub,2013-01-08 15:47:00,
2013-01-08 07:52:00,23.9,22.1,30.71,South,169,3.0,4.0,93,0.00,,,0.00,meteohub,2013-01-08 15:52:00,
2013-01-08 07:57:00,23.9,22.1,30.71,SSE,155,2.0,4.0,93,0.00,,,0.00,meteohub,2013-01-08 15:57:00,
2013-01-08 08:02:00,23.7,21.9,30.71,SSE,161,2.0,4.0,93,0.00,,,0.00,meteohub,2013-01-08 16:02:00,
2013-01-08 08:07:00,23.7,21.9,30.72,SSE,157,2.0,4.0,93,0.00,,,0.00,meteohub,2013-01-08 16:07:00,
2013-01-08 08:12:00,24.1,22.3,30.72,South,175,0.0,3.0,93,0.00,,,0.00,meteohub,2013-01-08 16:12:00,
2013-01-08 08:17:00,24.1,22.6,30.72,SSE,157,2.0,3.0,94,0.00,,,0.00,meteohub,2013-01-08 16:17:00,
2013-01-08 08:22:00,24.3,22.8,30.72,SSE,168,2.0,3.0,94,0.00,,,0.00,meteohub,2013-01-08 16:22:00,
2013-01-08 08:27:00,24.3,22.8,30.72,SSE,157,2.0,2.0,94,0.00,,,0.00,meteohub,2013-01-08 16:27:00,
2013-01-08 08:32:00,24.6,23.2,30.72,South,175,2.0,2.0,94,0.00,,,0.00,meteohub,2013-01-08 16:32:00,
2013-01-08 08:37:00,25.3,24.1,30.73,SSE,159,2.0,2.0,95,0.00,,,0.00,meteohub,2013-01-08 16:37:00,
2013-01-08 08:42:00,25.9,24.4,30.72,South,171,2.0,2.0,94,0.00,,,0.00,meteohub,2013-01-08 16:42:00,
2013-01-08 08:47:00,26.1,24.3,30.72,SE,141,1.0,2.0,93,0.00,,,0.00,meteohub,2013-01-08 16:47:00,
2013-01-08 08:52:00,26.4,24.6,30.72,SE,146,1.0,2.0,93,0.00,,,0.00,meteohub,2013-01-08 16:52:00,
2013-01-08 08:57:00,26.6,24.8,30.72,SSE,167,1.0,2.0,93,0.00,,,0.00,meteohub,2013-01-08 16:57:00,
2013-01-08 09:02:00,27.0,25.5,30.72,SSE,155,1.0,2.0,94,0.00,,,0.00,meteohub,2013-01-08 17:02:00,
2013-01-08 09:07:00,27.3,25.5,30.72,SSE,152,1.0,2.0,93,0.00,,,0.00,meteohub,2013-01-08 17:07:00,
2013-01-08 09:12:00,27.7,25.9,30.72,SE,130,0.0,2.0,93,0.00,,,0.00,meteohub,2013-01-08 17:12:00,
2013-01-08 09:17:00,27.7,25.7,30.72,SSE,164,0.0,1.0,92,0.00,,,0.00,meteohub,2013-01-08 17:17:00,
2013-01-08 09:22:00,27.9,25.9,30.73,SSE,164,0.0,1.0,92,0.00,,,0.00,meteohub,2013-01-08 17:22:00,
2013-01-08 09:27:00,28.0,26.1,30.73,SSE,165,0.0,1.0,92,0.00,,,0.00,meteohub,2013-01-08 17:27:00,
2013-01-08 09:32:00,28.6,26.6,30.73,SSE,164,0.0,1.0,92,0.00,,,0.00,meteohub,2013-01-08 17:32:00,
2013-01-08 09:37:00,29.1,27.1,30.74,SSE,164,0.0,0.0,92,0.00,,,0.00,meteohub,2013-01-08 17:37:00,
2013-01-08 09:42:00,29.5,27.1,30.74,SSE,164,0.0,0.0,91,0.00,,,0.00,meteohub,2013-01-08 17:42:00,
2013-01-08 09:47:00,29.8,27.9,30.74,SSE,164,0.0,0.0,92,0.00,,,0.00,meteohub,2013-01-08 17:47:00,
2013-01-08 09:52:00,30.6,28.8,30.74,SSE,164,0.0,0.0,93,0.00,,,0.00,meteohub,2013-01-08 17:52:00,
2013-01-08 09:57:00,31.5,29.7,30.74,SSE,164,0.0,0.0,93,0.00,,,0.00,meteohub,2013-01-08 17:57:00,
2013-01-08 10:02:00,32.4,30.4,30.73,SSE,160,0.0,0.0,92,0.00,,,0.00,meteohub,2013-01-08 18:02:00,
2013-01-08 10:07:00,33.1,30.7,30.73,SSE,160,0.0,0.0,91,0.00,,,0.00,meteohub,2013-01-08 18:07:00,
2013-01-08 10:12:00,33.6,30.9,30.73,SSE,161,0.0,0.0,90,0.00,,,0.00,meteohub,2013-01-08 18:12:00,
2013-01-08 10:17:00,34.3,31.6,30.73,SSE,160,0.0,0.0,90,0.00,,,0.00,meteohub,2013-01-08 18:17:00,
2013-01-08 10:22:00,35.1,31.6,30.73,SSE,160,0.0,0.0,87,0.00,,,0.00,meteohub,2013-01-08 18:22:00,
2013-01-08 10:27:00,35.2,31.5,30.72,SSE,160,0.0,0.0,86,0.00,,,0.00,meteohub,2013-01-08 18:27:00,
2013-01-08 10:32:00,35.4,32.0,30.72,SSE,161,1.0,0.0,87,0.00,,,0.00,meteohub,2013-01-08 18:32:00,
2013-01-08 10:37:00,35.6,31.8,30.72,SSE,162,0.0,1.0,86,0.00,,,0.00,meteohub,2013-01-08 18:37:00,
2013-01-08 10:42:00,35.8,32.4,30.71,SSE,161,0.0,1.0,87,0.00,,,0.00,meteohub,2013-01-08 18:42:00,
2013-01-08 10:47:00,36.3,33.1,30.71,SSE,162,0.0,1.0,88,0.00,,,0.00,meteohub,2013-01-08 18:47:00,
2013-01-08 10:52:00,37.2,33.1,30.71,SSE,161,0.0,1.0,85,0.00,,,0.00,meteohub,2013-01-08 18:52:00,
2013-01-08 10:57:00,38.5,33.8,30.71,SSE,161,0.0,1.0,83,0.00,,,0.00,meteohub,2013-01-08 18:57:00,
2013-01-08 11:02:00,37.8,33.6,30.70,NW,320,0.0,2.0,85,0.00,,,0.00,meteohub,2013-01-08 19:02:00,
2013-01-08 11:07:00,37.2,33.4,30.70,NW,320,0.0,2.0,86,0.00,,,0.00,meteohub,2013-01-08 19:07:00,
2013-01-08 11:12:00,37.2,33.4,30.69,NW,317,0.0,2.0,86,0.00,,,0.00,meteohub,2013-01-08 19:12:00,
2013-01-08 11:17:00,37.2,33.8,30.69,NW,322,3.0,3.0,87,0.00,,,0.00,meteohub,2013-01-08 19:17:00,
2013-01-08 11:22:00,37.2,33.8,30.68,NW,322,3.0,3.0,87,0.00,,,0.00,meteohub,2013-01-08 19:22:00,
2013-01-08 11:27:00,37.2,33.8,30.68,NNW,327,1.0,4.0,87,0.00,,,0.00,meteohub,2013-01-08 19:27:00,
2013-01-08 11:32:00,37.2,33.8,30.68,NNW,327,3.0,4.0,87,0.00,,,0.00,meteohub,2013-01-08 19:32:00,
2013-01-08 11:37:00,37.2,33.8,30.67,NW,323,1.0,4.0,87,0.00,,,0.00,meteohub,2013-01-08 19:37:00,
2013-01-08 11:42:00,37.4,33.8,30.67,NNW,331,3.0,3.0,87,0.01,,,0.01,meteohub,2013-01-08 19:42:00,
2013-01-08 11:47:00,37.6,34.0,30.67,NNW,329,2.0,3.0,87,0.01,,,0.01,meteohub,2013-01-08 19:47:00,
2013-01-08 11:52:00,37.6,34.3,30.67,NNW,327,2.0,3.0,88,0.01,,,0.01,meteohub,2013-01-08 19:52:00,
2013-01-08 11:57:00,37.8,34.2,30.67,NNE,15,2.0,3.0,87,0.01,,,0.01,meteohub,2013-01-08 19:57:00,
2013-01-08 12:02:00,37.8,34.0,30.66,NNE,29,2.0,3.0,86,0.01,,,0.01,meteohub,2013-01-08 20:02:00,
2013-01-08 12:07:00,37.9,34.3,30.66,North,11,2.0,3.0,87,0.01,,,0.01,meteohub,2013-01-08 20:07:00,
2013-01-08 12:12:00,37.9,34.7,30.66,NNW,345,3.0,3.0,88,0.01,,,0.01,meteohub,2013-01-08 20:12:00,
2013-01-08 12:17:00,37.9,34.3,30.66,NW,321,2.0,4.0,87,0.01,,,0.01,meteohub,2013-01-08 20:17:00,
2013-01-08 12:22:00,37.9,34.3,30.65,NW,322,3.0,4.0,87,0.01,,,0.01,meteohub,2013-01-08 20:22:00,
2013-01-08 12:27:00,37.9,34.7,30.65,NW,320,3.0,4.0,88,0.01,,,0.01,meteohub,2013-01-08 20:27:00,
2013-01-08 12:32:00,37.9,34.7,30.65,NW,323,2.0,4.0,88,0.01,,,0.01,meteohub,2013-01-08 20:32:00,
2013-01-08 12:37:00,37.9,34.7,30.65,NW,316,3.0,4.0,88,0.01,,,0.01,meteohub,2013-01-08 20:37:00,
2013-01-08 12:42:00,37.9,34.7,30.64,NW,319,0.0,4.0,88,0.00,,,0.01,meteohub,2013-01-08 20:42:00,
2013-01-08 12:47:00,38.1,34.9,30.64,NW,317,2.0,4.0,88,0.00,,,0.01,meteohub,2013-01-08 20:47:00,
2013-01-08 12:52:00,38.1,34.9,30.64,NW,319,3.0,4.0,88,0.00,,,0.01,meteohub,2013-01-08 20:52:00,
2013-01-08 12:57:00,37.9,34.7,30.64,NNW,333,3.0,4.0,88,0.00,,,0.01,meteohub,2013-01-08 20:57:00,
2013-01-08 13:02:00,37.9,34.7,30.64,NNW,327,3.0,4.0,88,0.00,,,0.01,meteohub,2013-01-08 21:02:00,
2013-01-08 13:07:00,37.9,34.7,30.64,NNW,329,3.0,5.0,88,0.00,,,0.01,meteohub,2013-01-08 21:07:00,
2013-01-08 13:12:00,37.9,34.7,30.64,NNW,327,2.0,5.0,88,0.00,,,0.01,meteohub,2013-01-08 21:12:00,
2013-01-08 13:17:00,37.9,34.7,30.64,NNW,337,3.0,4.0,88,0.00,,,0.01,meteohub,2013-01-08 21:17:00,
2013-01-08 13:22:00,38.1,34.5,30.64,NW,320,2.0,4.0,87,0.00,,,0.01,meteohub,2013-01-08 21:22:00,
2013-01-08 13:27:00,38.1,34.9,30.64,NW,322,2.0,4.0,88,0.00,,,0.01,meteohub,2013-01-08 21:27:00,
2013-01-08 13:32:00,38.1,34.9,30.64,NW,320,2.0,4.0,88,0.00,,,0.01,meteohub,2013-01-08 21:32:00,
2013-01-08 13:37:00,38.3,35.1,30.64,NW,321,0.0,4.0,88,0.00,,,0.01,meteohub,2013-01-08 21:37:00,
2013-01-08 13:42:00,38.3,35.1,30.63,NW,319,1.0,3.0,88,0.00,,,0.01,meteohub,2013-01-08 21:42:00,
2013-01-08 13:47:00,38.3,35.1,30.63,NW,319,0.0,3.0,88,0.00,,,0.01,meteohub,2013-01-08 21:47:00,
2013-01-08 13:52:00,38.5,34.9,30.63,NW,319,0.0,3.0,87,0.00,,,0.01,meteohub,2013-01-08 21:52:00,
2013-01-08 13:57:00,38.7,35.1,30.63,NW,319,0.0,2.0,87,0.00,,,0.01,meteohub,2013-01-08 21:57:00,
2013-01-08 14:02:00,38.7,35.1,30.63,NW,319,0.0,1.0,87,0.00,,,0.01,meteohub,2013-01-08 22:02:00,
2013-01-08 14:07:00,38.8,35.1,30.63,NW,319,0.0,1.0,86,0.00,,,0.01,meteohub,2013-01-08 22:07:00,
2013-01-08 14:12:00,38.8,35.2,30.63,NW,319,0.0,0.0,87,0.00,,,0.01,meteohub,2013-01-08 22:12:00,
2013-01-08 14:17:00,38.7,35.1,30.63,NW,319,0.0,0.0,87,0.00,,,0.01,meteohub,2013-01-08 22:17:00,
2013-01-08 14:22:00,38.5,35.2,30.63,NW,319,0.0,0.0,88,0.00,,,0.01,meteohub,2013-01-08 22:22:00,
2013-01-08 14:27:00,38.5,35.2,30.63,NW,319,0.0,0.0,88,0.00,,,0.01,meteohub,2013-01-08 22:27:00,
2013-01-08 14:32:00,38.1,34.9,30.63,NW,319,0.0,0.0,88,0.00,,,0.01,meteohub,2013-01-08 22:32:00,
2013-01-08 14:37:00,38.1,35.2,30.63,NW,319,0.0,0.0,89,0.00,,,0.01,meteohub,2013-01-08 22:37:00,
2013-01-08 14:42:00,38.1,35.2,30.63,NW,319,0.0,0.0,89,0.00,,,0.01,meteohub,2013-01-08 22:42:00,
2013-01-08 14:47:00,38.1,35.2,30.64,NW,319,0.0,0.0,89,0.00,,,0.01,meteohub,2013-01-08 22:47:00,
2013-01-08 14:52:00,38.3,35.4,30.64,NW,319,0.0,0.0,89,0.00,,,0.01,meteohub,2013-01-08 22:52:00,
2013-01-08 14:57:00,38.1,35.2,30.64,NW,319,0.0,0.0,89,0.00,,,0.01,meteohub,2013-01-08 22:57:00,
2013-01-08 15:02:00,37.9,35.2,30.64,NW,319,0.0,0.0,90,0.00,,,0.01,meteohub,2013-01-08 23:02:00,
2013-01-08 15:07:00,37.9,35.2,30.64,NW,319,0.0,0.0,90,0.00,,,0.01,meteohub,2013-01-08 23:07:00,
2013-01-08 15:12:00,37.8,35.1,30.64,NW,319,0.0,0.0,90,0.00,,,0.01,meteohub,2013-01-08 23:12:00,
2013-01-08 15:17:00,37.6,34.9,30.64,NW,319,0.0,0.0,90,0.00,,,0.01,meteohub,2013-01-08 23:17:00,
2013-01-08 15:22:00,37.6,35.2,30.65,NW,319,0.0,0.0,91,0.00,,,0.01,meteohub,2013-01-08 23:22:00,
2013-01-08 15:27:00,37.2,34.9,30.65,NW,319,0.0,0.0,91,0.00,,,0.01,meteohub,2013-01-08 23:27:00,
2013-01-08 15:32:00,37.0,34.9,30.65,NW,319,0.0,0.0,92,0.00,,,0.01,meteohub,2013-01-08 23:32:00,
2013-01-08 15:37:00,36.9,34.5,30.65,NW,319,0.0,0.0,91,0.00,,,0.01,meteohub,2013-01-08 23:37:00,
2013-01-08 15:42:00,36.7,34.5,30.64,NW,319,0.0,0.0,92,0.00,,,0.01,meteohub,2013-01-08 23:42:00,
2013-01-08 15:47:00,36.3,34.2,30.64,NW,319,0.0,0.0,92,0.00,,,0.01,meteohub,2013-01-08 23:47:00,
2013-01-08 15:52:00,36.5,34.7,30.64,NW,319,0.0,0.0,93,0.00,,,0.01,meteohub,2013-01-08 23:52:00,
2013-01-08 15:57:00,36.5,34.7,30.64,NW,319,0.0,0.0,93,0.00,,,0.01,meteohub,2013-01-08 23:57:00,
2013-01-08 16:02:00,36.7,34.5,30.64,NW,319,0.0,0.0,92,0.00,,,0.01,meteohub,2013-01-09 00:02:00,
2013-01-08 16:07:00,36.5,34.3,30.64,NW,319,0.0,0.0,92,0.00,,,0.00,meteohub,2013-01-09 00:07:00,
2013-01-08 16:12:00,36.9,34.7,30.64,NW,319,0.0,0.0,92,0.00,,,0.00,meteohub,2013-01-09 00:12:00,
2013-01-08 16:17:00,37.0,34.3,30.64,NW,319,0.0,0.0,90,0.00,,,0.00,meteohub,2013-01-09 00:17:00,
2013-01-08 16:22:00,37.0,34.9,30.64,NW,319,0.0,0.0,92,0.00,,,0.00,meteohub,2013-01-09 00:22:00,
2013-01-08 16:27:00,37.2,35.4,30.64,NW,319,0.0,0.0,93,0.00,,,0.00,meteohub,2013-01-09 00:27:00,
2013-01-08 16:32:00,37.4,35.6,30.64,NW,319,0.0,0.0,93,0.00,,,0.00,meteohub,2013-01-09 00:32:00,
2013-01-08 16:37:00,37.2,34.9,30.64,NW,319,0.0,0.0,91,0.00,,,0.00,meteohub,2013-01-09 00:37:00,
2013-01-08 16:42:00,37.0,34.7,30.64,NW,319,0.0,0.0,91,0.00,,,0.00,meteohub,2013-01-09 00:42:00,
2013-01-08 16:47:00,37.0,34.9,30.64,NW,321,0.0,0.0,92,0.00,,,0.00,meteohub,2013-01-09 00:47:00,
2013-01-08 16:52:00,37.0,35.2,30.64,NE,34,0.0,0.0,93,0.00,,,0.00,meteohub,2013-01-09 00:52:00,
2013-01-08 16:57:00,37.0,35.2,30.64,SE,140,0.0,0.0,93,0.00,,,0.00,meteohub,2013-01-09 00:57:00,
2013-01-08 17:02:00,36.7,34.3,30.64,South,173,0.0,0.0,91,0.00,,,0.00,meteohub,2013-01-09 01:02:00,
2013-01-08 17:07:00,36.0,33.6,30.64,South,173,0.0,0.0,91,0.00,,,0.00,meteohub,2013-01-09 01:07:00,
2013-01-08 17:12:00,35.6,33.3,30.64,SSE,159,0.0,0.0,91,0.00,,,0.00,meteohub,2013-01-09 01:12:00,
2013-01-08 17:17:00,35.2,32.9,30.64,SSE,159,1.0,1.0,91,0.00,,,0.00,meteohub,2013-01-09 01:17:00,
2013-01-08 17:22:00,34.9,32.5,30.64,SSE,157,1.0,2.0,91,0.00,,,0.00,meteohub,2013-01-09 01:22:00,
2013-01-08 17:27:00,34.5,32.2,30.64,SSE,148,1.0,2.0,91,0.00,,,0.00,meteohub,2013-01-09 01:27:00,
2013-01-08 17:32:00,34.2,32.0,30.64,SSE,153,2.0,2.0,92,0.00,,,0.00,meteohub,2013-01-09 01:32:00,
2013-01-08 17:37:00,34.0,31.8,30.64,SSE,150,1.0,2.0,92,0.00,,,0.00,meteohub,2013-01-09 01:37:00,
2013-01-08 17:42:00,33.4,31.3,30.64,SSE,167,1.0,2.0,92,0.00,,,0.00,meteohub,2013-01-09 01:42:00,
2013-01-08 17:47:00,33.3,31.1,30.64,SSE,155,1.0,2.0,92,0.00,,,0.00,meteohub,2013-01-09 01:47:00,
2013-01-08 17:52:00,33.1,31.1,30.63,SSE,152,2.0,2.0,92,0.00,,,0.00,meteohub,2013-01-09 01:52:00,
2013-01-08 17:57:00,32.7,30.7,30.63,SSE,156,1.0,2.0,92,0.00,,,0.00,meteohub,2013-01-09 01:57:00,
2013-01-08 18:02:00,32.4,30.4,30.63,SSE,155,1.0,2.0,92,0.00,,,0.00,meteohub,2013-01-09 02:02:00,
2013-01-08 18:07:00,32.2,30.2,30.63,SSE,155,0.0,2.0,92,0.00,,,0.00,meteohub,2013-01-09 02:07:00,
2013-01-08 18:12:00,31.8,29.8,30.63,ESE,110,0.0,2.0,92,0.00,,,0.00,meteohub,2013-01-09 02:12:00,
2013-01-08 18:17:00,32.0,30.2,30.64,East,84,0.0,2.0,93,0.00,,,0.00,meteohub,2013-01-09 02:17:00,
2013-01-08 18:22:00,31.6,29.7,30.64,SE,141,0.0,2.0,92,0.00,,,0.00,meteohub,2013-01-09 02:22:00,
2013-01-08 18:27:00,31.3,29.3,30.64,SSE,164,1.0,1.0,92,0.00,,,0.00,meteohub,2013-01-09 02:27:00,
2013-01-08 18:32:00,30.9,29.1,30.64,SSE,159,1.0,1.0,93,0.00,,,0.00,meteohub,2013-01-09 02:32:00,
2013-01-08 18:37:00,30.9,29.1,30.64,SSE,150,1.0,2.0,93,0.00,,,0.00,meteohub,2013-01-09 02:37:00,
2013-01-08 18:42:00,30.6,28.8,30.64,SE,144,0.0,2.0,93,0.00,,,0.00,meteohub,2013-01-09 02:42:00,
2013-01-08 18:48:00,30.2,28.4,30.65,SSE,153,1.0,2.0,93,0.00,,,0.00,meteohub,2013-01-09 02:48:00,
2013-01-08 18:53:00,30.0,28.2,30.65,South,175,0.0,2.0,93,0.00,,,0.00,meteohub,2013-01-09 02:53:00,
2013-01-08 18:58:00,30.0,28.6,30.65,SSE,167,2.0,2.0,94,0.00,,,0.00,meteohub,2013-01-09 02:58:00,
2013-01-08 19:03:00,29.8,28.4,30.65,SSE,159,2.0,2.0,94,0.00,,,0.00,meteohub,2013-01-09 03:03:00,
2013-01-08 19:08:00,29.8,28.4,30.65,SSE,167,2.0,2.0,94,0.00,,,0.00,meteohub,2013-01-09 03:08:00,
2013-01-08 19:13:00,29.7,27.9,30.65,South,174,2.0,2.0,93,0.00,,,0.00,meteohub,2013-01-09 03:13:00,
2013-01-08 19:18:00,29.5,27.7,30.65,South,174,2.0,2.0,93,0.00,,,0.00,meteohub,2013-01-09 03:18:00,
2013-01-08 19:23:00,29.3,27.5,30.66,SSE,161,2.0,2.0,93,0.00,,,0.00,meteohub,2013-01-09 03:23:00,
2013-01-08 19:28:00,29.1,27.3,30.66,SSE,155,2.0,3.0,93,0.00,,,0.00,meteohub,2013-01-09 03:28:00,
2013-01-08 19:33:00,28.8,27.0,30.66,South,175,3.0,3.0,93,0.00,,,0.00,meteohub,2013-01-09 03:33:00,
2013-01-08 19:39:00,28.2,26.4,30.66,SSE,162,2.0,3.0,93,0.00,,,0.00,meteohub,2013-01-09 03:39:00,
2013-01-08 19:44:00,28.0,26.2,30.66,SSE,167,3.0,3.0,93,0.00,,,0.00,meteohub,2013-01-09 03:44:00,
2013-01-08 19:49:00,27.7,26.2,30.67,SSE,161,3.0,4.0,94,0.00,,,0.00,meteohub,2013-01-09 03:49:00,
2013-01-08 19:54:00,27.7,26.2,30.67,SSE,161,2.0,4.0,94,0.00,,,0.00,meteohub,2013-01-09 03:54:00,
2013-01-08 19:59:00,27.5,26.1,30.67,South,169,3.0,4.0,94,0.00,,,0.00,meteohub,2013-01-09 03:59:00,
2013-01-08 20:04:00,27.5,26.1,30.67,SSE,157,3.0,3.0,94,0.00,,,0.00,meteohub,2013-01-09 04:04:00,
2013-01-08 20:09:00,27.5,26.1,30.67,SSE,164,2.0,3.0,94,0.00,,,0.00,meteohub,2013-01-09 04:09:00,
2013-01-08 20:14:00,27.3,25.9,30.67,SSE,163,3.0,3.0,94,0.00,,,0.00,meteohub,2013-01-09 04:14:00,
2013-01-08 20:19:00,27.3,25.9,30.67,SSE,156,3.0,3.0,94,0.00,,,0.00,meteohub,2013-01-09 04:19:00,
2013-01-08 20:24:00,27.3,25.9,30.67,SSE,160,3.0,3.0,94,0.00,,,0.00,meteohub,2013-01-09 04:24:00,
2013-01-08 20:29:00,27.1,25.7,30.67,SSE,161,2.0,3.0,94,0.00,,,0.00,meteohub,2013-01-09 04:29:00,
2013-01-08 20:34:00,27.1,25.3,30.68,SSE,161,2.0,3.0,93,0.00,,,0.00,meteohub,2013-01-09 04:34:00,
2013-01-08 20:39:00,27.0,25.2,30.68,SSE,150,2.0,3.0,93,0.00,,,0.00,meteohub,2013-01-09 04:39:00,
2013-01-08 20:44:00,27.0,25.2,30.67,SSE,165,3.0,3.0,93,0.00,,,0.00,meteohub,2013-01-09 04:44:00,
2013-01-08 20:49:00,27.0,25.2,30.67,SSE,167,4.0,4.0,93,0.00,,,0.00,meteohub,2013-01-09 04:49:00,
2013-01-08 20:54:00,27.0,25.0,30.67,South,175,3.0,4.0,92,0.00,,,0.00,meteohub,2013-01-09 04:54:00,
2013-01-08 20:59:00,27.1,25.2,30.67,SSE,167,3.0,4.0,92,0.00,,,0.00,meteohub,2013-01-09 04:59:00,
2013-01-08 21:00:00,27.1,25.2,30.67,SSE,167,4.0,4.0,92,0.00,,,0.00,meteohub,2013-01-09 05:00:00,
2013-01-08 21:01:00,27.1,25.2,30.68,South,169,3.0,4.0,92,0.00,,,0.00,meteohub,2013-01-09 05:01:00,
2013-01-08 21:03:00,27.1,25.2,30.68,SSE,168,3.0,4.0,92,0.00,,,0.00,meteohub,2013-01-09 05:03:00,
2013-01-08 21:08:00,27.0,25.0,30.68,SSE,157,3.0,4.0,92,0.00,,,0.00,meteohub,2013-01-09 05:08:00,
2013-01-08 21:13:00,27.0,25.0,30.68,SSE,157,3.0,4.0,92,0.00,,,0.00,meteohub,2013-01-09 05:13:00,
2013-01-08 21:18:00,26.8,24.8,30.68,SSE,160,2.0,4.0,92,0.00,,,0.00,meteohub,2013-01-09 05:18:00,
2013-01-08 21:23:00,26.4,24.4,30.68,SSE,165,3.0,3.0,92,0.00,,,0.00,meteohub,2013-01-09 05:23:00,
2013-01-08 21:28:00,26.6,24.8,30.68,SSE,156,3.0,4.0,93,0.00,,,0.00,meteohub,2013-01-09 05:28:00,
2013-01-08 21:33:00,26.8,25.0,30.68,SSE,162,2.0,4.0,93,0.00,,,0.00,meteohub,2013-01-09 05:33:00,
2013-01-08 21:38:00,26.8,24.8,30.69,SSE,159,3.0,4.0,92,0.00,,,0.00,meteohub,2013-01-09 05:38:00,
2013-01-08 21:43:00,26.8,24.4,30.68,South,171,3.0,4.0,91,0.00,,,0.00,meteohub,2013-01-09 05:43:00,
2013-01-08 21:48:00,26.6,24.3,30.69,SSE,156,2.0,3.0,91,0.00,,,0.00,meteohub,2013-01-09 05:48:00,
2013-01-08 21:53:00,26.4,24.1,30.69,SSE,160,2.0,3.0,91,0.00,,,0.00,meteohub,2013-01-09 05:53:00,
2013-01-08 21:58:00,26.4,23.9,30.69,South,182,2.0,3.0,90,0.00,,,0.00,meteohub,2013-01-09 05:58:00,
2013-01-08 22:03:00,26.4,24.1,30.69,SSE,153,1.0,3.0,91,0.00,,,0.00,meteohub,2013-01-09 06:03:00,
2013-01-08 22:09:00,26.4,23.9,30.69,SSE,155,1.0,3.0,90,0.00,,,0.00,meteohub,2013-01-09 06:09:00,
2013-01-08 22:14:00,26.2,23.7,30.69,SSE,153,0.0,3.0,90,0.00,,,0.00,meteohub,2013-01-09 06:14:00,
2013-01-08 22:19:00,25.9,23.4,30.69,SSE,148,0.0,3.0,90,0.00,,,0.00,meteohub,2013-01-09 06:19:00,
2013-01-08 22:24:00,25.5,23.0,30.69,SSE,156,1.0,2.0,90,0.00,,,0.00,meteohub,2013-01-09 06:24:00,
2013-01-08 22:29:00,25.3,22.8,30.68,South,169,3.0,3.0,90,0.00,,,0.00,meteohub,2013-01-09 06:29:00,
2013-01-08 22:34:00,25.3,22.8,30.68,South,173,3.0,3.0,90,0.00,,,0.00,meteohub,2013-01-09 06:34:00,
2013-01-08 22:39:00,25.5,23.0,30.68,SSE,167,3.0,3.0,90,0.00,,,0.00,meteohub,2013-01-09 06:39:00,
2013-01-08 22:44:00,25.5,23.0,30.68,SSE,157,2.0,4.0,90,0.00,,,0.00,meteohub,2013-01-09 06:44:00,
2013-01-08 22:49:00,25.5,23.0,30.68,South,173,3.0,4.0,90,0.00,,,0.00,meteohub,2013-01-09 06:49:00,
2013-01-08 22:54:00,25.7,23.2,30.68,SSE,163,3.0,4.0,90,0.00,,,0.00,meteohub,2013-01-09 06:54:00,
2013-01-08 22:59:00,25.7,23.0,30.67,SSE,168,4.0,4.0,89,0.00,,,0.00,meteohub,2013-01-09 06:59:00,
2013-01-08 23:04:00,25.9,23.0,30.67,South,173,3.0,4.0,89,0.00,,,0.00,meteohub,2013-01-09 07:04:00,
2013-01-08 23:09:00,26.1,23.2,30.67,SSE,168,3.0,4.0,89,0.00,,,0.00,meteohub,2013-01-09 07:09:00,
2013-01-08 23:14:00,26.1,23.0,30.67,SSE,157,2.0,4.0,88,0.00,,,0.00,meteohub,2013-01-09 07:14:00,
2013-01-08 23:19:00,25.5,22.8,30.67,SSE,156,2.0,4.0,89,0.00,,,0.00,meteohub,2013-01-09 07:19:00,
2013-01-08 23:24:00,25.5,22.8,30.67,South,180,3.0,4.0,89,0.00,,,0.00,meteohub,2013-01-09 07:24:00,
2013-01-08 23:29:00,25.9,23.0,30.67,South,179,3.0,4.0,89,0.00,,,0.00,meteohub,2013-01-09 07:29:00,
2013-01-08 23:34:00,26.1,23.0,30.67,SSE,154,1.0,4.0,88,0.00,,,0.00,meteohub,2013-01-09 07:34:00,
2013-01-08 23:39:00,25.9,22.8,30.67,SSE,155,2.0,4.0,88,0.00,,,0.00,meteohub,2013-01-09 07:39:00,
2013-01-08 23:44:00,25.7,22.6,30.68,SSE,153,0.0,3.0,88,0.00,,,0.00,meteohub,2013-01-09 07:44:00,
2013-01-08 23:49:00,25.3,22.6,30.68,SSE,153,2.0,3.0,89,0.00,,,0.00,meteohub,2013-01-09 07:49:00,
2013-01-08 23:54:00,25.2,22.5,30.67,SSE,156,1.0,2.0,89,0.00,,,0.00,meteohub,2013-01-09 07:54:00,
2013-01-08 23:59:00,25.0,22.3,30.67,SSE,152,2.0,2.0,89,0.00,,,0.00,meteohub,2013-01-09 07:59:00,